contact:dominique.lefevre@mio.osupytheas.fr, maurice.libes@osupytheas.fr, didier.mallarino@osupytheas.fr
Project:EMSO http://www.emso-fr.org/EMSO-France
Depth: 2436.0 m
Title:EMSO Ligure Ouest : Data MII capteur AQUADOPP
Date,Latitude,Longitude,X_East,Y_North,Z_Up,Amplitude_X,Amplitude_Y,Amplitude_Z,Batterie,SoundSpeed,Heading,Pitch,Roll,Pressure,TIS,Speed,Direction
, degrees North, degrees East, m.s-1, m.s-1,m.s-1, 1, 1, 1, Volt, m.s-1, degree, degree, degree, dbar, degree_C, m.s-1, degree
2021-06-22T00:04:03,42.805,6.029,0.056,-0.054,-0.002,104.0,103.0,102.0,13.4,1505.2,327.7,-0.8,1.8,2470.492,13.28,0.077,134.0
2021-06-22T00:07:03,42.805,6.029,0.08,-0.046,0.009,104.0,103.0,102.0,13.4,1505.2,327.3,-0.7,1.8,2470.542,13.28,0.092,119.9
2021-06-22T00:10:03,42.805,6.029,0.068,-0.035,0.008,105.0,103.0,102.0,13.4,1505.2,326.8,-0.8,1.8,2470.502,13.28,0.076,117.2
2021-06-22T00:13:03,42.805,6.029,0.078,-0.04,0.016,103.0,103.0,101.0,13.4,1505.2,325.9,-0.7,1.8,2470.51,13.28,0.087,117.1
2021-06-22T00:16:03,42.805,6.029,0.062,-0.049,0.009,101.0,103.0,103.0,13.4,1505.2,328.9,-0.8,1.8,2470.498,13.28,0.079,128.3
2021-06-22T00:19:03,42.805,6.029,0.072,-0.059,-0.004,104.0,103.0,101.0,13.4,1505.2,326.9,-0.8,1.8,2470.516,13.28,0.093,129.3
2021-06-22T00:22:03,42.805,6.029,0.069,-0.046,0.015,104.0,103.0,101.0,13.4,1505.2,327.1,-0.8,1.8,2470.499,13.28,0.082,123.7
2021-06-22T00:25:03,42.805,6.029,0.077,-0.042,0.008,105.0,104.0,102.0,13.4,1505.2,327.7,-0.7,1.8,2470.502,13.28,0.087,118.6
2021-06-22T00:28:03,42.805,6.029,0.051,-0.051,0.002,104.0,102.0,101.0,13.4,1505.2,328.1,-0.7,1.8,2470.491,13.28,0.072,135.0
2021-06-22T00:31:03,42.805,6.029,0.04,-0.05,0.02,103.0,102.0,102.0,13.3,1505.2,330.0,-0.7,1.8,2470.518,13.28,0.064,141.3
2021-06-22T00:34:03,42.805,6.029,0.068,-0.058,0.02,103.0,102.0,102.0,13.4,1505.2,328.7,-0.8,1.9,2470.51,13.28,0.089,130.5
2021-06-22T00:37:03,42.805,6.029,0.061,-0.06,0.011,103.0,104.0,101.0,13.3,1505.2,328.1,-0.8,1.8,2470.544,13.28,0.085,134.5
2021-06-22T00:40:03,42.805,6.029,0.071,-0.055,-0.024,103.0,104.0,101.0,13.4,1505.2,324.5,-0.7,1.8,2470.503,13.28,0.089,127.8
2021-06-22T00:43:03,42.805,6.029,0.053,-0.067,-0.008,103.0,103.0,102.0,13.3,1505.2,330.0,-0.8,1.8,2470.513,13.28,0.085,141.7
2021-06-22T00:46:03,42.805,6.029,0.056,-0.042,-0.011,103.0,103.0,102.0,13.4,1505.2,328.2,-0.8,1.8,2470.544,13.28,0.069,126.9
2021-06-22T00:49:03,42.805,6.029,0.061,-0.046,-0.003,104.0,102.0,102.0,13.3,1505.2,324.7,-0.8,1.8,2470.503,13.28,0.076,127.0
2021-06-22T00:52:03,42.805,6.029,0.042,-0.033,0.009,102.0,104.0,101.0,13.4,1505.2,324.6,-0.7,1.8,2470.52,13.28,0.053,128.2
2021-06-22T00:55:03,42.805,6.029,0.047,-0.058,-0.027,103.0,103.0,102.0,13.4,1505.2,325.5,-0.7,1.8,2470.523,13.28,0.074,141.0
2021-06-22T00:58:03,42.805,6.029,0.057,-0.044,0.0,104.0,102.0,102.0,13.3,1505.2,328.8,-0.8,1.8,2470.49,13.28,0.072,127.7
2021-06-22T01:04:03,42.805,6.029,0.041,-0.039,0.005,103.0,102.0,101.0,13.4,1505.2,326.2,-0.7,1.8,2470.502,13.28,0.056,133.6
2021-06-22T01:07:03,42.805,6.029,0.063,-0.053,-0.003,103.0,102.0,102.0,13.4,1505.2,328.0,-0.7,1.8,2470.539,13.28,0.082,130.1
2021-06-22T01:10:03,42.805,6.029,0.054,-0.04,-0.023,102.0,103.0,102.0,13.4,1505.2,324.8,-0.8,1.8,2470.515,13.28,0.067,126.5
2021-06-22T01:13:03,42.805,6.029,0.043,-0.068,0.018,104.0,104.0,100.0,13.4,1505.2,328.7,-0.8,1.8,2470.523,13.28,0.08,147.7
2021-06-22T01:16:03,42.805,6.029,0.055,-0.045,-0.011,103.0,103.0,102.0,13.4,1505.2,327.5,-0.8,1.8,2470.558,13.28,0.071,129.3
2021-06-22T01:19:03,42.805,6.029,0.044,-0.072,-0.002,103.0,102.0,101.0,13.4,1505.2,327.8,-0.7,1.8,2470.535,13.28,0.084,148.6
2021-06-22T01:22:03,42.805,6.029,0.054,-0.044,-0.004,103.0,102.0,102.0,13.3,1505.2,326.5,-0.7,1.8,2470.542,13.28,0.069,129.2
2021-06-22T01:25:03,42.805,6.029,0.073,-0.055,-0.005,103.0,103.0,101.0,13.3,1505.2,327.4,-0.8,1.8,2470.517,13.28,0.091,127.0
2021-06-22T01:28:03,42.805,6.029,0.063,-0.048,0.017,103.0,102.0,102.0,13.3,1505.2,326.4,-0.8,1.8,2470.532,13.28,0.079,127.3
2021-06-22T01:31:03,42.805,6.029,0.078,-0.048,0.001,103.0,103.0,101.0,13.3,1505.2,328.0,-0.8,1.8,2470.52,13.28,0.091,121.6
2021-06-22T01:34:03,42.805,6.029,0.071,-0.045,0.023,104.0,103.0,102.0,13.4,1505.2,327.7,-0.8,1.8,2470.542,13.28,0.084,122.4
2021-06-22T01:37:03,42.805,6.029,0.047,-0.048,-0.004,101.0,103.0,103.0,13.4,1505.2,326.8,-0.7,1.9,2470.532,13.28,0.067,135.6
2021-06-22T01:40:03,42.805,6.029,0.062,-0.066,0.011,104.0,101.0,100.0,13.4,1505.2,328.6,-0.8,1.8,2470.566,13.28,0.09,136.8
2021-06-22T01:43:03,42.805,6.029,0.042,-0.042,0.041,102.0,103.0,102.0,13.4,1505.2,326.6,-0.7,1.8,2470.559,13.28,0.059,135.0
2021-06-22T01:46:03,42.805,6.029,0.053,-0.038,0.008,103.0,103.0,101.0,13.3,1505.2,324.8,-0.8,1.8,2470.558,13.28,0.065,125.6
2021-06-22T01:49:03,42.805,6.029,0.061,-0.046,0.019,103.0,102.0,101.0,13.3,1505.2,329.4,-0.7,1.8,2470.512,13.28,0.076,127.0
2021-06-22T01:52:03,42.805,6.029,0.069,-0.057,0.005,102.0,103.0,102.0,13.4,1505.2,326.2,-0.8,1.8,2470.56,13.28,0.089,129.6
2021-06-22T01:55:03,42.805,6.029,0.039,-0.032,0.012,103.0,103.0,101.0,13.4,1505.2,329.4,-0.8,1.8,2470.552,13.28,0.05,129.4
2021-06-22T01:58:03,42.805,6.029,0.062,-0.069,-0.011,104.0,104.0,100.0,13.4,1505.2,327.3,-0.7,1.8,2470.551,13.28,0.092,138.1
2021-06-22T02:04:03,42.805,6.029,0.05,-0.043,0.002,103.0,103.0,101.0,13.4,1505.2,328.7,-0.7,1.8,2470.572,13.28,0.065,130.7
2021-06-22T02:07:03,42.805,6.029,0.07,-0.055,0.01,102.0,101.0,101.0,13.4,1505.2,327.4,-0.7,1.8,2470.593,13.28,0.089,128.2
2021-06-22T02:10:03,42.805,6.029,0.045,-0.051,-0.031,104.0,103.0,101.0,13.4,1505.2,326.9,-0.8,1.8,2470.53,13.28,0.068,138.6
2021-06-22T02:13:03,42.805,6.029,0.05,-0.042,0.017,104.0,104.0,100.0,13.4,1505.2,328.5,-0.8,1.9,2470.579,13.28,0.065,130.0
2021-06-22T02:16:03,42.805,6.029,0.046,-0.054,0.007,103.0,103.0,101.0,13.4,1505.2,328.2,-0.7,1.8,2470.567,13.28,0.07,139.6
2021-06-22T02:19:03,42.805,6.029,0.038,-0.068,0.013,103.0,104.0,100.0,13.3,1505.2,324.8,-0.7,1.8,2470.586,13.28,0.077,150.8
2021-06-22T02:22:03,42.805,6.029,0.04,-0.053,-0.01,104.0,102.0,102.0,13.4,1505.2,330.1,-0.8,1.8,2470.547,13.28,0.066,143.0
2021-06-22T02:25:03,42.805,6.029,0.069,-0.045,0.015,103.0,102.0,101.0,13.4,1505.2,328.4,-0.7,1.8,2470.562,13.28,0.082,123.1
2021-06-22T02:28:03,42.805,6.029,0.052,-0.072,-0.015,103.0,103.0,101.0,13.4,1505.2,329.0,-0.8,1.8,2470.544,13.28,0.088,144.2
2021-06-22T02:31:03,42.805,6.029,0.042,-0.049,-0.026,103.0,102.0,101.0,13.4,1505.2,328.1,-0.7,1.8,2470.586,13.28,0.064,139.4
2021-06-22T02:34:03,42.805,6.029,0.052,-0.02,-0.01,103.0,103.0,102.0,13.4,1505.2,325.1,-0.8,1.9,2470.603,13.28,0.055,111.0
2021-06-22T02:37:03,42.805,6.029,0.054,-0.047,-0.005,102.0,103.0,101.0,13.4,1505.2,327.7,-0.7,1.8,2470.6,13.28,0.071,131.0
2021-06-22T02:40:03,42.805,6.029,0.038,-0.054,-0.032,103.0,102.0,102.0,13.4,1505.2,329.4,-0.7,1.8,2470.55,13.28,0.066,144.9
2021-06-22T02:43:03,42.805,6.029,0.051,-0.047,0.0,102.0,104.0,102.0,13.3,1505.2,329.1,-0.8,1.8,2470.585,13.28,0.069,132.7
2021-06-22T02:46:03,42.805,6.029,0.057,-0.058,-0.016,102.0,102.0,101.0,13.4,1505.2,326.8,-0.8,1.8,2470.608,13.28,0.081,135.5
2021-06-22T02:49:03,42.805,6.029,0.06,-0.027,0.002,103.0,101.0,101.0,13.4,1505.2,325.1,-0.7,1.8,2470.555,13.28,0.065,114.2
2021-06-22T02:52:03,42.805,6.029,0.051,-0.055,0.007,101.0,103.0,103.0,13.4,1505.2,330.1,-0.8,1.9,2470.574,13.28,0.075,137.2
2021-06-22T02:55:03,42.805,6.029,0.072,-0.066,0.004,104.0,102.0,100.0,13.4,1505.2,328.2,-0.8,1.8,2470.552,13.28,0.097,132.5
2021-06-22T02:58:03,42.805,6.029,0.058,-0.066,-0.013,101.0,102.0,102.0,13.4,1505.2,325.3,-0.8,1.8,2470.619,13.28,0.087,138.7
2021-06-22T03:04:03,42.805,6.029,0.045,-0.054,0.018,105.0,102.0,101.0,13.4,1505.2,329.6,-0.8,1.8,2470.635,13.28,0.07,140.2
2021-06-22T03:07:03,42.805,6.029,0.067,-0.043,-0.016,103.0,102.0,102.0,13.3,1505.2,326.9,-0.7,1.8,2470.605,13.28,0.079,122.7
2021-06-22T03:10:03,42.805,6.029,0.054,-0.047,0.01,104.0,103.0,102.0,13.4,1505.2,328.4,-0.7,1.8,2470.641,13.28,0.071,131.0
2021-06-22T03:13:03,42.805,6.029,0.069,-0.071,-0.015,104.0,102.0,101.0,13.4,1505.2,327.9,-0.8,1.8,2470.583,13.28,0.099,135.8
2021-06-22T03:16:03,42.805,6.029,0.028,-0.045,-0.007,104.0,102.0,102.0,13.3,1505.2,326.7,-0.7,1.8,2470.623,13.28,0.053,148.1
2021-06-22T03:19:03,42.805,6.029,0.052,-0.054,-0.015,103.0,103.0,101.0,13.4,1505.2,327.6,-0.8,1.9,2470.658,13.28,0.074,136.1
2021-06-22T03:22:03,42.805,6.029,0.029,-0.044,-0.008,103.0,103.0,101.0,13.3,1505.2,329.5,-0.8,1.8,2470.611,13.28,0.052,146.6
2021-06-22T03:25:03,42.805,6.029,0.038,-0.052,0.01,103.0,102.0,102.0,13.3,1505.2,328.2,-0.8,1.8,2470.63,13.28,0.064,143.8
2021-06-22T03:28:03,42.805,6.029,0.073,-0.035,0.002,104.0,103.0,102.0,13.4,1505.2,324.5,-0.7,1.8,2470.6,13.28,0.08,115.6
2021-06-22T03:31:03,42.805,6.029,0.075,-0.055,-0.011,102.0,103.0,101.0,13.4,1505.2,325.7,-0.8,1.8,2470.624,13.28,0.093,126.3
2021-06-22T03:34:03,42.805,6.029,0.077,-0.072,-0.017,103.0,103.0,101.0,13.4,1505.2,326.9,-0.7,1.8,2470.631,13.28,0.105,133.1
2021-06-22T03:37:03,42.805,6.029,0.039,-0.054,-0.002,104.0,103.0,102.0,13.4,1505.2,328.2,-0.8,1.8,2470.605,13.28,0.066,144.2
2021-06-22T03:40:03,42.805,6.029,0.044,-0.037,-0.009,105.0,104.0,101.0,13.3,1505.2,328.0,-0.8,1.8,2470.613,13.28,0.057,130.1
2021-06-22T03:43:03,42.805,6.029,0.061,-0.069,-0.033,103.0,104.0,101.0,13.3,1505.2,325.0,-0.8,1.8,2470.642,13.28,0.092,138.5
2021-06-22T03:46:03,42.805,6.029,0.038,-0.036,-0.004,105.0,104.0,100.0,13.4,1505.2,324.8,-0.8,1.8,2470.652,13.28,0.052,133.5
2021-06-22T03:49:03,42.805,6.029,0.06,-0.063,0.006,103.0,103.0,102.0,13.3,1505.2,328.2,-0.7,1.8,2470.614,13.28,0.086,136.4
2021-06-22T03:52:03,42.805,6.029,0.071,-0.052,-0.019,105.0,103.0,101.0,13.4,1505.2,329.8,-0.7,1.8,2470.653,13.28,0.088,126.2
2021-06-22T03:55:03,42.805,6.029,0.038,-0.05,0.008,103.0,102.0,103.0,13.4,1505.2,327.9,-0.7,1.8,2470.615,13.28,0.062,142.8
2021-06-22T03:58:03,42.805,6.029,0.058,-0.057,-0.014,104.0,103.0,102.0,13.3,1505.2,327.7,-0.7,1.9,2470.636,13.28,0.081,134.5
2021-06-22T04:04:03,42.805,6.029,0.063,-0.053,0.004,104.0,104.0,102.0,13.4,1505.2,328.7,-0.8,1.8,2470.643,13.28,0.082,130.1
2021-06-22T04:07:03,42.805,6.029,0.062,-0.065,0.011,104.0,103.0,103.0,13.4,1505.2,326.8,-0.7,1.8,2470.631,13.28,0.089,136.4
2021-06-22T04:10:03,42.805,6.029,0.064,-0.052,-0.005,103.0,104.0,102.0,13.3,1505.2,326.9,-0.8,1.9,2470.661,13.28,0.082,129.1
2021-06-22T04:13:03,42.805,6.029,0.052,-0.042,0.004,104.0,102.0,102.0,13.4,1505.2,326.3,-0.7,1.8,2470.63,13.28,0.066,128.9
2021-06-22T04:16:03,42.805,6.029,0.066,-0.039,0.014,104.0,103.0,102.0,13.3,1505.2,327.2,-0.8,1.9,2470.633,13.28,0.076,120.6
2021-06-22T04:19:03,42.805,6.029,0.048,-0.05,-0.002,104.0,103.0,102.0,13.3,1505.2,327.0,-0.8,1.8,2470.628,13.28,0.069,136.2
2021-06-22T04:22:03,42.805,6.029,0.059,-0.051,-0.01,103.0,103.0,103.0,13.3,1505.2,330.2,-0.7,1.8,2470.644,13.28,0.077,130.8
2021-06-22T04:25:03,42.805,6.029,0.054,-0.043,0.001,103.0,102.0,102.0,13.3,1505.2,330.1,-0.7,1.8,2470.637,13.28,0.069,128.5
2021-06-22T04:28:03,42.805,6.029,0.069,-0.065,0.003,104.0,103.0,102.0,13.4,1505.2,327.0,-0.7,1.8,2470.629,13.28,0.094,133.3
2021-06-22T04:31:03,42.805,6.029,0.046,-0.041,0.009,104.0,102.0,102.0,13.4,1505.2,327.2,-0.8,1.8,2470.649,13.28,0.061,131.7
2021-06-22T04:34:03,42.805,6.029,0.048,-0.044,-0.01,105.0,103.0,101.0,13.4,1505.2,328.3,-0.7,1.8,2470.656,13.28,0.065,132.5
2021-06-22T04:37:03,42.805,6.029,0.06,-0.071,-0.004,104.0,102.0,102.0,13.4,1505.2,325.8,-0.7,1.8,2470.645,13.28,0.092,139.8
2021-06-22T04:40:03,42.805,6.029,0.057,-0.049,-0.014,105.0,103.0,102.0,13.3,1505.2,327.6,-0.8,1.8,2470.633,13.28,0.075,130.7
2021-06-22T04:43:03,42.805,6.029,0.054,-0.06,-0.012,103.0,103.0,102.0,13.4,1505.2,329.9,-0.8,1.8,2470.625,13.28,0.08,138.0
2021-06-22T04:46:03,42.805,6.029,0.044,-0.042,-0.007,104.0,103.0,102.0,13.4,1505.2,328.9,-0.7,1.8,2470.607,13.28,0.06,133.7
2021-06-22T04:49:03,42.805,6.029,0.057,-0.049,0.003,104.0,102.0,103.0,13.4,1505.2,324.9,-0.8,1.8,2470.612,13.28,0.075,130.7
2021-06-22T04:52:03,42.805,6.029,0.041,-0.059,0.0,104.0,104.0,102.0,13.4,1505.2,330.2,-0.7,1.8,2470.618,13.28,0.071,145.2
2021-06-22T04:55:03,42.805,6.029,0.079,-0.047,-0.013,103.0,104.0,103.0,13.4,1505.2,327.0,-0.7,1.8,2470.634,13.28,0.091,120.8
2021-06-22T04:58:03,42.805,6.029,0.047,-0.054,-0.008,103.0,102.0,103.0,13.4,1505.2,327.9,-0.7,1.8,2470.584,13.28,0.071,139.0
2021-06-22T05:04:03,42.805,6.029,0.063,-0.039,0.015,104.0,103.0,103.0,13.3,1505.2,328.2,-0.8,1.8,2470.657,13.28,0.074,121.8
2021-06-22T05:07:03,42.805,6.029,0.066,-0.051,0.001,105.0,103.0,103.0,13.4,1505.2,327.5,-0.8,1.8,2470.676,13.28,0.083,127.7
2021-06-22T05:10:03,42.805,6.029,0.052,-0.058,-0.002,104.0,103.0,102.0,13.4,1505.2,326.9,-0.7,1.9,2470.628,13.28,0.077,138.1
2021-06-22T05:13:03,42.805,6.029,0.075,-0.047,0.026,104.0,103.0,102.0,13.4,1505.2,330.3,-0.8,1.8,2470.642,13.28,0.088,122.1
2021-06-22T05:16:03,42.805,6.029,0.055,-0.053,0.005,104.0,103.0,102.0,13.3,1505.2,326.1,-0.8,1.8,2470.645,13.28,0.076,133.9
2021-06-22T05:19:03,42.805,6.029,0.055,-0.053,-0.021,104.0,103.0,102.0,13.4,1505.2,326.6,-0.7,1.8,2470.61,13.28,0.076,133.9
2021-06-22T05:22:03,42.805,6.029,0.053,-0.055,-0.016,104.0,104.0,102.0,13.4,1505.2,325.8,-0.8,1.8,2470.661,13.28,0.076,136.1
2021-06-22T05:25:03,42.805,6.029,0.068,-0.043,-0.011,103.0,105.0,101.0,13.3,1505.2,327.3,-0.8,1.8,2470.649,13.28,0.08,122.3
2021-06-22T05:28:03,42.805,6.029,0.055,-0.055,-0.017,103.0,104.0,102.0,13.4,1505.2,325.4,-0.7,1.8,2470.679,13.28,0.077,135.0
2021-06-22T05:31:03,42.805,6.029,0.077,-0.041,-0.001,103.0,103.0,102.0,13.4,1505.2,327.2,-0.7,1.9,2470.631,13.28,0.087,118.0
2021-06-22T05:34:03,42.805,6.029,0.037,-0.049,-0.024,105.0,103.0,101.0,13.4,1505.2,329.0,-0.8,1.8,2470.628,13.28,0.061,142.9
2021-06-22T05:37:03,42.805,6.029,0.058,-0.055,-0.005,104.0,104.0,100.0,13.4,1505.2,327.7,-0.7,1.8,2470.633,13.28,0.079,133.5
2021-06-22T05:40:03,42.805,6.029,0.052,-0.054,-0.004,103.0,103.0,102.0,13.3,1505.2,329.2,-0.7,1.8,2470.614,13.28,0.074,136.1
2021-06-22T05:43:03,42.805,6.029,0.038,-0.057,0.0,104.0,103.0,102.0,13.4,1505.2,324.9,-0.8,1.8,2470.582,13.28,0.068,146.3
2021-06-22T05:46:03,42.805,6.029,0.049,-0.046,0.017,104.0,103.0,102.0,13.4,1505.2,328.3,-0.7,1.8,2470.634,13.28,0.067,133.2
2021-06-22T05:49:03,42.805,6.029,0.065,-0.049,0.004,104.0,104.0,102.0,13.4,1505.2,329.1,-0.8,1.8,2470.647,13.28,0.081,127.0
2021-06-22T05:52:03,42.805,6.029,0.039,-0.057,-0.005,104.0,102.0,103.0,13.3,1505.2,329.2,-0.8,1.8,2470.609,13.28,0.069,145.6
2021-06-22T05:55:03,42.805,6.029,0.034,-0.042,-0.013,105.0,104.0,101.0,13.4,1505.2,325.6,-0.8,1.8,2470.603,13.28,0.054,141.0
2021-06-22T05:58:03,42.805,6.029,0.051,-0.033,-0.022,103.0,103.0,102.0,13.4,1505.2,329.5,-0.8,1.8,2470.615,13.28,0.06,122.9
2021-06-22T06:04:03,42.805,6.029,0.051,-0.064,-0.024,103.0,103.0,102.0,13.4,1505.2,330.3,-0.8,1.8,2470.608,13.28,0.081,141.4
2021-06-22T06:07:03,42.805,6.029,0.076,-0.045,0.029,103.0,104.0,101.0,13.4,1505.2,325.9,-0.8,1.8,2470.627,13.28,0.088,120.6
2021-06-22T06:10:03,42.805,6.029,0.084,-0.049,0.0,104.0,103.0,101.0,13.3,1505.2,326.9,-0.8,1.8,2470.63,13.28,0.097,120.3
2021-06-22T06:13:03,42.805,6.029,0.055,-0.065,-0.024,104.0,103.0,103.0,13.4,1505.2,327.7,-0.7,1.9,2470.627,13.28,0.085,139.8
2021-06-22T06:16:03,42.805,6.029,0.064,-0.061,-0.006,104.0,103.0,102.0,13.4,1505.2,328.9,-0.7,1.9,2470.635,13.28,0.088,133.6
2021-06-22T06:19:03,42.805,6.029,0.036,-0.036,-0.019,105.0,103.0,101.0,13.3,1505.2,327.4,-0.7,1.8,2470.633,13.28,0.05,135.0
2021-06-22T06:22:03,42.805,6.029,0.053,-0.062,0.007,104.0,104.0,102.0,13.4,1505.2,329.9,-0.8,1.8,2470.633,13.28,0.081,139.5
2021-06-22T06:25:03,42.805,6.029,0.058,-0.04,0.001,103.0,104.0,103.0,13.3,1505.2,329.6,-0.7,1.8,2470.615,13.28,0.07,124.6
2021-06-22T06:28:03,42.805,6.029,0.063,-0.037,-0.004,104.0,104.0,102.0,13.3,1505.2,326.4,-0.8,1.8,2470.573,13.28,0.073,120.4
2021-06-22T06:31:03,42.805,6.029,0.018,-0.041,-0.029,104.0,104.0,102.0,13.4,1505.2,328.7,-0.7,1.8,2470.618,13.28,0.044,156.3
2021-06-22T06:34:03,42.805,6.029,0.048,-0.048,0.027,105.0,104.0,103.0,13.4,1505.2,328.7,-0.7,1.8,2470.587,13.28,0.067,135.0
2021-06-22T06:37:03,42.805,6.029,0.042,-0.057,-0.001,103.0,105.0,103.0,13.4,1505.2,327.9,-0.8,1.8,2470.592,13.28,0.07,143.6
2021-06-22T06:40:03,42.805,6.029,0.044,-0.041,-0.016,103.0,104.0,103.0,13.4,1505.2,324.6,-0.8,1.8,2470.547,13.28,0.06,133.0
2021-06-22T06:43:03,42.805,6.029,0.073,-0.047,0.031,104.0,105.0,101.0,13.3,1505.2,328.9,-0.8,1.8,2470.571,13.28,0.086,122.8
2021-06-22T06:46:03,42.805,6.029,0.022,-0.037,-0.002,103.0,104.0,103.0,13.4,1505.2,328.7,-0.8,1.8,2470.535,13.28,0.043,149.3
2021-06-22T06:49:03,42.805,6.029,0.073,-0.028,-0.008,104.0,104.0,103.0,13.4,1505.2,328.4,-0.8,1.8,2470.569,13.28,0.078,111.0
2021-06-22T06:52:03,42.805,6.029,0.058,-0.04,-0.005,104.0,103.0,103.0,13.4,1505.2,328.9,-0.7,1.8,2470.565,13.28,0.07,124.6
2021-06-22T06:55:03,42.805,6.029,0.043,-0.046,-0.047,103.0,103.0,102.0,13.4,1505.2,328.3,-0.8,1.8,2470.564,13.28,0.062,136.9
2021-06-22T06:58:03,42.805,6.029,0.043,-0.038,0.0,105.0,103.0,103.0,13.4,1505.2,326.7,-0.8,1.8,2470.582,13.28,0.057,131.5
2021-06-22T07:04:03,42.805,6.029,0.064,-0.035,-0.02,105.0,103.0,102.0,13.4,1505.2,328.4,-0.8,1.8,2470.579,13.28,0.072,118.7
2021-06-22T07:07:03,42.805,6.029,0.051,-0.044,0.033,104.0,104.0,102.0,13.4,1505.2,327.0,-0.8,1.8,2470.554,13.28,0.067,130.8
2021-06-22T07:10:03,42.805,6.029,0.047,-0.044,-0.004,105.0,104.0,102.0,13.4,1505.2,328.3,-0.7,1.8,2470.592,13.28,0.064,133.1
2021-06-22T07:13:03,42.805,6.029,0.031,-0.048,-0.029,104.0,104.0,102.0,13.4,1505.2,329.8,-0.7,1.8,2470.592,13.28,0.057,147.1
2021-06-22T07:16:03,42.805,6.029,0.043,-0.03,-0.025,104.0,104.0,102.0,13.4,1505.2,326.3,-0.7,1.8,2470.572,13.28,0.052,124.9
2021-06-22T07:19:03,42.805,6.029,0.05,-0.04,-0.01,103.0,104.0,102.0,13.3,1505.2,325.3,-0.7,1.8,2470.567,13.28,0.064,128.7
2021-06-22T07:22:03,42.805,6.029,0.031,-0.051,0.009,104.0,104.0,102.0,13.4,1505.2,329.4,-0.7,1.8,2470.557,13.28,0.059,148.7
2021-06-22T07:25:03,42.805,6.029,0.04,-0.035,0.004,105.0,104.0,102.0,13.4,1505.2,326.6,-0.8,1.8,2470.53,13.28,0.053,131.2
2021-06-22T07:28:03,42.805,6.029,0.059,-0.059,-0.002,103.0,104.0,101.0,13.4,1505.2,324.6,-0.7,1.8,2470.546,13.28,0.083,135.0
2021-06-22T07:31:03,42.805,6.029,0.047,-0.049,0.005,104.0,104.0,102.0,13.4,1505.2,327.4,-0.8,1.8,2470.525,13.28,0.067,136.2
2021-06-22T07:34:03,42.805,6.029,0.024,-0.029,-0.021,103.0,103.0,102.0,13.4,1505.2,329.9,-0.8,1.8,2470.549,13.28,0.037,140.4
2021-06-22T07:37:03,42.805,6.029,0.034,-0.054,-0.02,104.0,104.0,103.0,13.4,1505.2,329.9,-0.8,1.8,2470.578,13.28,0.063,147.8
2021-06-22T07:40:03,42.805,6.029,0.062,-0.038,0.017,104.0,102.0,101.0,13.4,1505.2,325.6,-0.7,1.8,2470.539,13.28,0.072,121.5
2021-06-22T07:43:03,42.805,6.029,0.062,-0.05,-0.01,104.0,104.0,101.0,13.3,1505.2,328.1,-0.7,1.8,2470.545,13.28,0.079,128.9
2021-06-22T07:46:03,42.805,6.029,0.053,-0.052,0.0,104.0,103.0,102.0,13.4,1505.2,325.3,-0.7,1.8,2470.564,13.28,0.074,134.5
2021-06-22T07:49:03,42.805,6.029,0.063,-0.047,-0.029,104.0,104.0,102.0,13.4,1505.2,329.0,-0.8,1.8,2470.541,13.28,0.078,126.7
2021-06-22T07:52:03,42.805,6.029,0.036,-0.055,-0.023,104.0,103.0,102.0,13.3,1505.2,328.2,-0.7,1.8,2470.518,13.28,0.065,146.8
2021-06-22T07:55:03,42.805,6.029,0.061,-0.058,-0.002,106.0,104.0,101.0,13.3,1505.2,328.0,-0.7,1.8,2470.488,13.28,0.084,133.6
2021-06-22T07:58:03,42.805,6.029,0.062,-0.041,-0.002,105.0,103.0,102.0,13.4,1505.2,327.4,-0.7,1.8,2470.513,13.28,0.074,123.5
2021-06-22T08:04:03,42.805,6.029,0.06,-0.048,-0.015,104.0,103.0,103.0,13.4,1505.2,328.3,-0.8,1.8,2470.542,13.28,0.076,128.7
2021-06-22T08:07:03,42.805,6.029,0.077,-0.049,-0.002,105.0,104.0,102.0,13.4,1505.2,324.5,-0.8,1.8,2470.543,13.28,0.091,122.5
2021-06-22T08:10:03,42.805,6.029,0.059,-0.04,0.005,103.0,103.0,102.0,13.4,1505.2,326.8,-0.8,1.8,2470.52,13.28,0.071,124.1
2021-06-22T08:13:03,42.805,6.029,0.046,-0.017,0.017,105.0,104.0,100.0,13.4,1505.2,326.4,-0.7,1.8,2470.491,13.28,0.049,110.3
2021-06-22T08:16:03,42.805,6.029,0.06,-0.06,-0.005,104.0,103.0,102.0,13.3,1505.2,327.6,-0.8,1.8,2470.532,13.28,0.084,135.0
2021-06-22T08:19:03,42.805,6.029,0.04,-0.042,0.015,104.0,103.0,102.0,13.4,1505.2,328.0,-0.8,1.8,2470.511,13.28,0.057,136.4
2021-06-22T08:22:03,42.805,6.029,0.07,-0.046,-0.009,104.0,104.0,102.0,13.4,1505.2,328.0,-0.8,1.8,2470.528,13.28,0.083,123.3
2021-06-22T08:25:03,42.805,6.029,0.062,-0.036,0.017,105.0,104.0,101.0,13.3,1505.2,324.9,-0.8,1.8,2470.499,13.28,0.071,120.1
2021-06-22T08:28:03,42.805,6.029,0.037,-0.054,-0.004,105.0,102.0,103.0,13.4,1505.2,329.6,-0.8,1.8,2470.469,13.28,0.065,145.6
2021-06-22T08:31:03,42.805,6.029,0.05,-0.026,0.01,105.0,103.0,102.0,13.4,1505.2,327.6,-0.8,1.8,2470.475,13.28,0.056,117.5
2021-06-22T08:34:03,42.805,6.029,0.066,-0.046,0.018,103.0,105.0,102.0,13.4,1505.2,328.2,-0.8,1.9,2470.5,13.28,0.08,124.9
2021-06-22T08:37:03,42.805,6.029,0.063,-0.035,-0.02,104.0,103.0,101.0,13.4,1505.2,325.0,-0.8,1.8,2470.524,13.28,0.072,119.1
2021-06-22T08:40:03,42.805,6.029,0.055,-0.033,0.001,105.0,104.0,102.0,13.4,1505.2,327.7,-0.8,1.8,2470.45,13.28,0.064,121.0
2021-06-22T08:43:03,42.805,6.029,0.021,-0.035,-0.011,105.0,102.0,102.0,13.4,1505.2,325.5,-0.8,1.8,2470.449,13.28,0.04,149.0
2021-06-22T08:46:03,42.805,6.029,0.051,-0.036,-0.008,104.0,103.0,102.0,13.4,1505.2,327.2,-0.7,1.8,2470.432,13.28,0.062,125.2
2021-06-22T08:49:03,42.805,6.029,0.045,-0.058,-0.007,104.0,103.0,101.0,13.4,1505.2,325.3,-0.7,1.8,2470.438,13.28,0.073,142.2
2021-06-22T08:52:03,42.805,6.029,0.065,-0.044,-0.01,103.0,104.0,102.0,13.4,1505.2,327.9,-0.7,1.8,2470.472,13.28,0.078,124.1
2021-06-22T08:55:03,42.805,6.029,0.049,-0.058,-0.014,103.0,104.0,102.0,13.4,1505.2,329.3,-0.8,1.8,2470.456,13.28,0.075,139.8
2021-06-22T08:58:03,42.805,6.029,0.061,-0.046,-0.011,104.0,103.0,103.0,13.3,1505.2,325.4,-0.7,1.8,2470.481,13.28,0.076,127.0
2021-06-22T09:04:03,42.805,6.029,0.065,-0.043,-0.002,103.0,104.0,102.0,13.4,1505.2,327.0,-0.8,1.8,2470.52,13.28,0.077,123.5
2021-06-22T09:07:03,42.805,6.029,0.046,-0.041,-0.003,104.0,104.0,103.0,13.4,1505.2,328.9,-0.7,1.8,2470.469,13.28,0.061,131.7
2021-06-22T09:10:03,42.805,6.029,0.054,-0.043,0.019,103.0,104.0,102.0,13.3,1505.2,324.9,-0.8,1.9,2470.447,13.28,0.069,128.5
2021-06-22T09:13:03,42.805,6.029,0.056,-0.043,-0.017,104.0,104.0,103.0,13.3,1505.2,326.3,-0.8,1.8,2470.465,13.28,0.07,127.5
2021-06-22T09:16:03,42.805,6.029,0.042,-0.044,-0.018,104.0,103.0,102.0,13.4,1505.2,326.6,-0.8,1.8,2470.487,13.28,0.06,136.3
2021-06-22T09:19:03,42.805,6.029,0.039,-0.044,-0.004,103.0,104.0,102.0,13.3,1505.2,329.2,-0.8,1.8,2470.458,13.28,0.058,138.4
2021-06-22T09:22:03,42.805,6.029,0.032,-0.061,0.005,103.0,103.0,102.0,13.4,1505.2,326.4,-0.8,1.8,2470.445,13.28,0.068,152.3
2021-06-22T09:25:03,42.805,6.029,0.051,-0.043,-0.024,104.0,103.0,101.0,13.4,1505.2,328.5,-0.7,1.8,2470.484,13.28,0.066,130.1
2021-06-22T09:28:03,42.805,6.029,0.055,-0.03,0.007,104.0,103.0,102.0,13.3,1505.2,325.1,-0.8,1.8,2470.479,13.28,0.062,118.6
2021-06-22T09:31:03,42.805,6.029,0.035,-0.044,0.005,105.0,101.0,102.0,13.4,1505.2,326.4,-0.8,1.9,2470.476,13.28,0.056,141.5
2021-06-22T09:34:03,42.805,6.029,0.048,-0.057,-0.027,104.0,103.0,102.0,13.4,1505.2,325.2,-0.8,1.9,2470.455,13.28,0.074,139.9
2021-06-22T09:37:03,42.805,6.029,0.053,-0.033,0.003,104.0,104.0,103.0,13.4,1505.2,326.2,-0.7,1.8,2470.451,13.28,0.062,121.9
2021-06-22T09:40:03,42.805,6.029,0.046,-0.033,0.026,105.0,103.0,101.0,13.4,1505.2,329.3,-0.8,1.8,2470.429,13.28,0.056,125.7
2021-06-22T09:43:03,42.805,6.029,0.06,-0.059,0.028,104.0,102.0,103.0,13.4,1505.2,326.3,-0.7,1.8,2470.473,13.28,0.084,134.5
2021-06-22T09:46:03,42.805,6.029,0.056,-0.046,0.022,104.0,105.0,102.0,13.4,1505.2,328.8,-0.8,1.8,2470.431,13.28,0.072,129.4
2021-06-22T09:49:03,42.805,6.029,0.045,-0.05,0.005,104.0,103.0,102.0,13.4,1505.2,324.7,-0.8,1.8,2470.445,13.28,0.067,138.0
2021-06-22T09:52:03,42.805,6.029,0.055,-0.032,0.042,105.0,103.0,102.0,13.3,1505.2,326.9,-0.7,1.8,2470.435,13.28,0.063,120.2
2021-06-22T09:55:03,42.805,6.029,0.03,-0.054,0.014,102.0,104.0,102.0,13.3,1505.2,327.9,-0.8,1.8,2470.397,13.28,0.061,150.9